Regional Weather Roundup
Issued by NWS

Current Version | Previous Version | Text Only | Print | Product List | Glossary On
Versions: 1 2 3 4 5 6 7 8 9 10 11 12 13 14 15 16 17 18 19 20 21 22 23 24 25 26 27 28 29 30 31 32 33 34 35 36 37 38 39 40 41 42 43 44 45 46 47 48 49 50
000
ASUS42 KTBW 152218
RWRFL
FLORIDA REGIONAL WEATHER ROUNDUP
NATIONAL WEATHER SERVICE TAMPA BAY RUSKIN FL
600 PM EDT WED AUG 15 2018

NOTE: "FAIR" INDICATES FEW OR NO CLOUDS BELOW 12,000 FEET WITH NO
SIGNIFICANT WEATHER AND/OR OBSTRUCTIONS TO VISIBILITY.

FLZ001>010-012>015-112-114-115-152300-
PANHANDLE FLORIDA

CITY           SKY/WX    TMP DP  RH WIND       PRES   REMARKS
PENSACOLA      FAIR      87  74  64 SW10      30.03S HX  95
PENSACOLA NAS  PTSUNNY   87  76  69 S9        30.03S HX  97
MILTON NAS     PTSUNNY   83  79  88 CALM      30.04
CRESTVIEW      FAIR      80  74  81 CALM      30.05F
DUKE FIELD     PTSUNNY   85  73  65 S10       30.04F
VALPARAISO     PTSUNNY   86  76  71 S12       30.03F HX  96
MARY ESTHER    FAIR      86  72  62 S8        30.03F
PANAMA CITY    PTSUNNY   85  74  69 S9        30.05F
TYNDALL AFB    FAIR      84  74  72 S8        30.06F
APALACHICOLA   FAIR      84  78  82 S6        30.06F HX  95

STATION/POSITION SKY/WX   TEMP    WIND        PRES    WAVE   SWELL
                          AIR SEA DIR/SP/G            HT/PER HT/PER
                          (F)     (DEG/KT/KT) (MB)    (FT/S) (FT/S)
30.1N   87.6W              85     190/ 10/ 12 1017.0
29.2N   88.2W                     170/  4/  6 1016.8
28.8N   86.0W              79 85  240/  6/  8 1017.7F   1/ 8   2/ 8
PANAMA CITY BEAC           84 85  190/ 10/ 12 1018.1F
TOWER C                    82     210/  5/  6 1018.3F

$$
FLZ011-016>038-118-127-128-134-139-239-152300-
NORTH FLORIDA

CITY           SKY/WX    TMP DP  RH WIND       PRES   REMARKS
MARIANNA       FAIR      80  75  84 SW5       30.06R
TALLAHASSEE    CLOUDY    82  75  79 VRB6      30.07S THUNDER
PERRY          FAIR     N/A N/A N/A SE3       30.09F
LIVE OAK       SUNNY     81  73  78 CALM      30.09S
CROSS CITY     FAIR      80  75  87 N3        30.09S
LAKE CITY      FAIR      77  72  83 CALM      30.09F
GAINESVILLE    LGT RAIN  78  72  81 NW10      30.10F
WILLISTON        N/A    N/A N/A N/A MISG        N/A
PALATKA        FAIR      84  75  74 NW12G22   30.07S
MAYPORT NAS    LGT RAIN  85  74  69 SE5       30.07F
JACKSONVILLE   PTSUNNY   79  73  82 W17       30.09R THUNDER
JAX NAS        TSTM      79  72  79 W9        30.10R
JAX CECIL      LGT RAIN  73  72  94 NW5       30.09F
FERNANDINA BEA FAIR      82  73  75 W3        30.07S
ST AUGUSTINE   FAIR      82  73  74 SE12      30.08S
PALM COAST     SUNNY     84  73  70 SE9       30.07S

STATION/POSITION SKY/WX   TEMP    WIND        PRES    WAVE   SWELL
                          AIR SEA DIR/SP/G            HT/PER HT/PER
                          (F)     (DEG/KT/KT) (MB)    (FT/S) (FT/S)
SHELL POINT      NOT AVBL
KEATON BEACH               75      80/  4/  5 1018.7F
CEDAR KEY                  84     290/  5/  8 1018.2F
FERNANDINA                 83 84  170/  3/  4 1019.3F
30.7N   81.3W                 81                N/A     2/ 8
MAYPORT                    83     180/  2/  4 1018.9F
31.4N   80.9W              82 83  180/ 14/ 16 1018.2F   2/ 8   2/ 8
ST AUGUSTINE               80 78  150/  6/  7 1018.6F

$$
FLZ040-043>046-052-053-057-058-063-144-152300-
INTERIOR CENTRAL FLORIDA

CITY           SKY/WX    TMP DP  RH WIND       PRES   REMARKS
OCALA          FAIR      83  73  72 NW7       30.06F
LEESBURG       FAIR      90  70  51 SE6       30.06F HX  95
SANFORD        FAIR      90  71  53 SE8       30.05F HX  96
ORLANDO EXEC   FAIR      91  71  51 S8        30.05F HX  97
ORLANDO INTL   FAIR      90  73  57 E7        30.05F HX  98
KISSIMMEE      FAIR      90  73  57 SE7       30.06F HX  98
WINTER HAVEN   FAIR      87  73  62 E10       30.06F
LAKELAND       LGT RAIN  82  72  69 VRB5      30.06R
BARTOW         FAIR      88  70  55 E8        30.05S
SEBRING        FAIR      92  73  53 E10       30.05R HX 100
OKEECHOBEE     FAIR      82  72  69 E5        30.04F

$$
FLZ041-047-054-059-064-141-147-152300-
EAST CENTRAL FLORIDA

CITY           SKY/WX    TMP DP  RH WIND       PRES   REMARKS
ORMOND BEACH   SUNNY     86  73  66 E8        30.07F
DAYTONA BEACH  FAIR      86  76  71 E8        30.06F HX  96
DELAND         FAIR      90  73  58 SE9       30.05F HX  98
NEW SMYRNA BEA MOSUNNY   84  73  70 SE9       30.08F
JFK SPACE CTR  FAIR      87  74  66 SE7       30.06F HX  95
TITUSVILLE     MOSUNNY   90  73  58 SE7       30.07F HX  98
CAPE CANAVERAL FAIR      87  74  65 SE10      30.06S HX  95
PATRICK AFB    FAIR      85  78  77 SE10      30.07S HX  97
MELBOURNE      FAIR      89  72  56 SE14      30.07S HX  96
VERO BEACH     FAIR      85  74  69 E9        30.06F
FT PIERCE      FAIR      85  75  72 E10       30.05F
STUART         MOSUNNY   88  75  66 E12       30.07F HX  97

STATION/POSITION SKY/WX   TEMP    WIND        PRES    WAVE   SWELL
                          AIR SEA DIR/SP/G            HT/PER HT/PER
                          (F)     (DEG/KT/KT) (MB)    (FT/S) (FT/S)
28.5N   80.2W              85     130/  8/ 10 1018.7F   2/ 8   2/ 8
28.9N   78.5W              85 85  140/  8/ 10 1019.5F   3/ 8   3/ 8
TRIDENT PIER               85 79  120/  6/  8 1020.0F
28.4N   80.5W                 80                N/A     1/ 8
27.5N   80.2W                 82                N/A     1/ 3

$$
FLZ050-056-061-142-242-148-248-149-249-151-251-155-255-
160-260-152300-
WEST CENTRAL FLORIDA

CITY           SKY/WX    TMP DP  RH WIND       PRES   REMARKS
CRYSTAL RIVER  FAIR      86  73  66 CALM      30.06S
INVERNESS      FAIR      84  79  84 CALM      30.06S HX  96
BROOKSVILLE    TSTM      76  67  73 SE21G38   30.09R
CLEARWATER AIR HVY RAIN  77  66  69 S7G26     30.08R
ST PETE CLEARW TSTM      79  74  84 NW12G20   30.06R
TAMPA INTL     PTSUNNY   79  72  79 S8        30.07R THUNDER
TAMPA EXEC     PTSUNNY   77  73  88 CALM      30.08R
PLANT CITY     PTSUNNY   82  73  74 W6        30.09R
MACDILL AFB    CLOUDY    82  70  66 CALM      30.06S
PETER O KNIGHT PTSUNNY   82  75  78 S3        30.06S
ST PETERSBURG  FAIR      83  71  67 S13       30.04F
SARASOTA       FAIR      79  71  76 E5        30.04R
VENICE         FAIR      88  73  62 SW6       30.05S HX  96

STATION/POSITION SKY/WX   TEMP    WIND        PRES    WAVE   SWELL
                          AIR SEA DIR/SP/G            HT/PER HT/PER
                          (F)     (DEG/KT/KT) (MB)    (FT/S) (FT/S)
27.3N   84.2W                 86                N/A     1/ 4
CLEARWATER BEACH           86 87  240/  6/  8 1018.0R
MIDDLE TAMPA BAY           79     160/ 10/ 11 1017.8F
VENICE                     86 87  260/  6/  7 1017.4R

$$
FLZ066-069-070-075>078-162-262-165-265-152300-
SOUTHWEST FLORIDA AND KEYS

CITY           SKY/WX    TMP DP  RH WIND       PRES   REMARKS
PUNTA GORDA    FAIR      93  72  50 W10       30.04R HX 101
FT MYERS       LGT RAIN  78  71  79 SE10      30.05R
SOUTHWEST INTL LGT RAIN  79  72  79 SW8       30.05R
NAPLES         FAIR      77  73  87 NW3       30.03F
MARCO ISLAND   FAIR      84  73  69 MISG      30.04S
IMMOKALEE        N/A     86  75  70 NW7       30.03S HX  95
MARATHON       FAIR      88  75  65 E12G17    30.02S HX  97
KEY WEST NAS   PTSUNNY   82  73  74 VRB5G38   30.03R
KEY WEST INTL  FAIR      90  77  65 E13       30.03R HX 103

STATION/POSITION SKY/WX   TEMP    WIND        PRES    WAVE   SWELL
                          AIR SEA DIR/SP/G            HT/PER HT/PER
                          (F)     (DEG/KT/KT) (MB)    (FT/S) (FT/S)
NAPLES                     80 88              1016.9F
26.0N   85.6W              85     110/  6/  8 1016.7
DRY TORTUGAS               85     130/ 11/ 12 1016.9R
SAND KEY                   84                 1016.6R
SOMBRERO KEY               85      70/ 15/ 19 1015.8F
LONG KEY                   86 88  100/ 14/ 16 1016.8S
MOLASSES REEF              85 86  110/ 12/ 14 1017.2F

$$
FLZ067-068-071>074-168-172>174-152300-
SOUTHEAST FLORIDA

CITY           SKY/WX    TMP DP  RH WIND       PRES   REMARKS
W PALM BEACH   FAIR      87  75  67 E15       30.06F HX  96
BOCA RATON     MOSUNNY   88  77  70 SE12      30.05F HX 100
FT LAUDER-EXEC FAIR      89  76  65 E15G21    30.05S HX 100
FT LAUDERDALE  FAIR      87  77  72 E12       30.04S HX  99
POMPANO BEACH  FAIR      88  76  67 E12       30.05S HX  99
PEMBROKE PINES FAIR      90  74  59 E12       30.06S HX  99
OPA LOCKA      FAIR      89  74  60 E13       30.05S HX  98
MIAMI          FAIR      88  73  61 SE12      30.04S HX  95
WEST KENDALL   FAIR      89  73  59 E13       30.03F HX  97
HOMESTEAD      FAIR      89  76  65 E12       30.03S HX  99

STATION/POSITION SKY/WX   TEMP    WIND        PRES    WAVE   SWELL
                          AIR SEA DIR/SP/G            HT/PER HT/PER
                          (F)     (DEG/KT/KT) (MB)    (FT/S) (FT/S)
VIRGINIA KEY               86 89   70/  9/ 11 1017.2R
LAKE WORTH                 84 85  110/ 10/ 11 1018.9F
FOWEY ROCKS                85 86   70/ 11/ 12 1017.9F
SETTLEMENT POINT           83      10/  5/  6 1018.5F

$$




USA.gov is the U.S. government's official web portal to all federal, state and local government web resources and services.